Regional Weather Roundup
Issued by NWS Upton, NY

Current Version | Previous Version | Text Only | Print | Product List | Glossary On
Versions: 1 2 3 4 5 6 7 8 9 10 11 12 13 14 15 16 17 18 19 20 21 22 23 24 25 26 27 28 29 30 31 32 33 34 35 36 37 38 39 40 41 42 43 44 45 46 47 48 49 50
000
ASUS41 KOKX 032218
RWROKX

REGIONAL WEATHER ROUNDUP
NATIONAL WEATHER SERVICE NEW YORK NY
600 PM EDT FRI JUL 03 2015

NOTE: "FAIR" INDICATES FEW OR NO CLOUDS BELOW 12,000 FEET WITH NO
SIGNIFICANT WEATHER AND/OR OBSTRUCTIONS TO VISIBILITY.

NYZ071-072-176-178-NJZ106-104-032300-
NEW YORK CITY METRO AREA


CITY           SKY/WX    TMP DP  RH WIND       PRES   REMARKS
CENTRAL PARK   PTSUNNY   79  55  43 VRB5      29.98S
LAGUARDIA APRT PTSUNNY   78  55  44 S8        29.95S
KENNEDY INTL   CLOUDY    77  58  51 S10       29.97S
NEWARK/LIBERTY CLOUDY    78  60  53 S8        29.95S
BRNX BOT. GARD   N/A     77  54  44 NE3       29.97F
TETERBORO      PTSUNNY   80  53  39 SW7       29.94S
$$

NYZ177-179-078>081-032300-
LONG ISLAND NEW YORK

CITY           SKY/WX    TMP DP  RH WIND       PRES   REMARKS
FARMINGDALE    PTSUNNY   76  54  46 S7        29.97S
ISLIP          PTSUNNY   75  52  44 S8        29.96S
SHIRLEY        PTSUNNY   73  58  59 S5        29.98F
WESTHAMPTON    PTSUNNY   72  57  59 S6        29.99F
MONTAUK POINT    N/A     72  59  63 VRB5      29.99F
$$

NYZ052-065-067-032300-
HUDSON VALLEY

CITY           SKY/WX    TMP DP  RH WIND       PRES   REMARKS
WHITE PLAINS   PTSUNNY   77  51  40 NW5       29.96F
NEWBURGH       MOSUNNY   75  52  43 CALM      29.98F
MONTGOMERY     MOSUNNY   77  55  46 S5        29.95F
POUGHKEEPSIE   MOSUNNY   78  51  38 SE5       29.95F
ALBANY         MOSUNNY   78  47  33 S6        29.96S
$$

NJZ001-105-106-008-010-013-015-019>022-104-032300-
NEW JERSEY

CITY           SKY/WX    TMP DP  RH WIND       PRES   REMARKS
NEWARK/LIBERTY CLOUDY    78  60  53 S8        29.95S
TETERBORO      PTSUNNY   80  53  39 SW7       29.94S
CALDWELL       PTSUNNY   79  55  43 VRB5      29.95F
MORRISTOWN     PTSUNNY   81  57  44 SW6       29.96S
SOMERVILLE     CLOUDY    78  63  59 CALM      29.94S
SUSSEX         MOSUNNY   78  55  44 CALM      29.96S
ANDOVER          N/A     77  58  51 SW5       29.97S
TRENTON        CLOUDY    79  57  46 CALM      29.94F
MILLVILLE      PTSUNNY   76  63  64 S7        29.97S
ATLANTIC CITY  PTSUNNY   74  61  63 S8        29.97S
WRIGHTSTOWN    PTSUNNY   80  63  57 SE6       29.93S
TOMS RIVER     PTSUNNY   75  63  64 SE6       29.98R
BELMAR         PTSUNNY   73  59  60 S9        29.97F
$$

PAZ047>061-062-071-032300-
EASTERN PENNSYLVANIA

CITY           SKY/WX    TMP DP  RH WIND       PRES   REMARKS
PHILADELPHIA   CLOUDY    81  62  52 S7        29.95S
ALLENTOWN      CLOUDY    79  58  48 S8        29.95F
SCRANTON       PTSUNNY   78  55  44 SE3       29.95F
$$

CTZ002-004>006-009-010-012-RIZ004-006-007-MAZ004-011-015-032300-
SOUTHERN NEW ENGLAND
 IN CT

CITY           SKY/WX    TMP DP  RH WIND       PRES   REMARKS
BRADLEY INTL   PTSUNNY   79  51  37 SW7       29.93F
HARTFORD       SUNNY     79  51  37 S5        29.94F
DANBURY        MOSUNNY   76  51  41 SW5       29.98F
WTRBRY/OXFORD  SUNNY     75  52  43 W3        30.00F
BRIDGEPORT     PTSUNNY   75  54  47 S7        29.96F
MERIDEN        MOSUNNY   78  55  44 S13       29.95F
NEW HAVEN      PTSUNNY   74  56  53 S8        29.97S
CHESTER        FAIR      73  54  49 S6        29.98S
GROTON         MOSUNNY   71  58  63 S9        29.97S
WILLIMANTIC    SUNNY     78  50  37 W7        29.96F

 IN RI

CITY           SKY/WX    TMP DP  RH WIND       PRES   REMARKS
PROVIDENCE     PTSUNNY   76  55  48 S14       29.96S
BLOCK ISLAND   MOSUNNY   72  59  64 S8        29.98F
WESTERLY       MOSUNNY   73  55  53 S12       29.98S

 IN MA

CITY           SKY/WX    TMP DP  RH WIND       PRES   REMARKS
BOSTON         MOSUNNY   73  55  53 SE10      29.94F
WORCESTER      SUNNY     75  47  36 W8        29.99S
WESTFIELD      SUNNY     77  52  41 SE5       29.95S
PROVINCETOWN   SUNNY     77  18  10 S9        29.96F
NANTUCKET      SUNNY     69  52  54 SE6       29.97S
$$

ANZ330-335-338-340-345-350-353-355-032300-
COASTAL MARINE OBSERVATIONS


STATION/POSITION TIME  SKY/WX   TEMP    WIND        PRES    VSBY  WAVE
                                AIR SEA DIR/SP/G                  HT/PER
                 (UTC)          (F)     (DEG/KT/KT) (MB)    (MI)  (FT/S)
NY HARB ENTRANCE 2150            72 70  200/ 10/ 10 1014.2          2/ 8
4S FIRE IS       2103               71                N/A           3/ 8
20S FIRE ISLAND  2150            70 70  160/  6/  6 1014.6          3/ 8
GREAT SOUTH BAY  2100            72 76  220/  8/ 12   N/A
23SW MTP         2150            69 71  180/  6/  8 1015.0          3/ 8
HUDSON CANYON    NOT AVBL
KINGS POINT      2100            78 67   CALM  /  5 1013.7
CENTRAL LI SOUND NOT AVBL
EASTERN LI SOUND 2100            71 65  180/  8/ 10   N/A
ROBBINS REEF     2100            73     160/ 12/ 14 1013.3
$$


>>>>>>>>>>>>>>>>>>>>>>>>>>>> KEY <<<<<<<<<<<<<<<<<<<<<<<<<<<
>                                                          <
>     SKY/WX - SKY CONDITION/PRESENT WEATHER               <
>     TMP    - TEMPERATURE IN FAHRENHEIT                   <
>     DP     - DEWPOINT IN FAHRENHEIT                      <
>     RH     - RELATIVE HUMIDITY IN PERCENT                <
>     WIND   - DIRECTION AND SPEED IN MPH                  <
>     PRES   - MEAN SEA LEVEL PRESSURE IN INCHES OF HG     <
>     WCI    - WIND CHILL INDEX                            <
>     VSB    - VISIBILITY IN MILES                         <
>     HX     - HEAT INDEX                                  <
>     TC     - TEMPERATURE IN CELSIUS                      <
>     VRB    - VARIABLE WIND DIRECTION                     <
>                                                          <
>>>>>>>>>>>>>>>>>>>>>>>>>>>> KEY <<<<<<<<<<<<<<<<<<<<<<<<<<<





USA.gov is the U.S. government's official web portal to all federal, state and local government web resources and services.